Tracking 29040 objects as of 15-Jun-2024
HD Live streaming from Space Station
objects crossing your sky now

STARLINK-30043

Track STARLINK-30043 now!
10-day predictions
STARLINK-30043 is classified as:


NORAD ID: 57417
Int'l Code: 2023-102P
Perigee: 565.5 km
Apogee: 567.0 km
Inclination: 43.0 °
Period: 95.8 minutes
Semi major axis: 6937 km
RCS: Unknown
Launch date: July 20, 2023
Source: United States (US)
Launch site: AIR FORCE WESTERN TEST RANGE (AFWTR)
Your satellite tracking list
Your tracking list is empty




NASA's NSSDC Master Catalog

Two Line Element Set (TLE):
1 57417U 23102P   24166.84115274  .00001338  00000-0  11413-3 0  9991
2 57417  43.0024  87.2400 0001107 266.0722  93.9994 15.02528714 51042
Source of the keplerian elements: AFSPC